| time (UTC) | temp F | wind direction | speed MPH | gust MPH | rain 1hr in | rain 24hr in | rain mn in | humidity % | barometer mb |
| 20260509221605 | 92 | 41 | 0.0 | 4.0 | 0.00 | 0.00 | 0.00 | 48 | 1005.0 |
| 20260509220059 | 92 | 121 | 0.0 | 2.0 | 0.00 | 0.00 | 0.00 | 46 | 1005.0 |
| 20260509214544 | 91 | 300 | 0.0 | 0.0 | 0.00 | 0.00 | 0.00 | 49 | 1005.2 |
| 20260509213042 | 91 | 97 | 0.0 | 4.0 | 0.00 | 0.00 | 0.00 | 49 | 1005.4 |
| 20260509211539 | 90 | 163 | 0.0 | 3.0 | 0.00 | 0.00 | 0.00 | 52 | 1005.5 |
| 20260509210040 | 90 | 194 | 0.0 | 3.0 | 0.00 | 0.00 | 0.00 | 53 | 1005.8 |
| 20260509204535 | 89 | 119 | 0.0 | 3.0 | 0.00 | 0.00 | 0.00 | 54 | 1006.0 |
| 20260509203038 | 88 | 105 | 1.0 | 5.0 | 0.00 | 0.00 | 0.00 | 51 | 1006.2 |
| 20260509201530 | 88 | 78 | 0.0 | 6.0 | 0.00 | 0.00 | 0.00 | 46 | 1006.6 |
| 20260509200032 | 88 | 355 | 1.0 | 5.0 | 0.00 | 0.00 | 0.00 | 41 | 1007.2 |
| 20260509194526 | 89 | 122 | 0.0 | 5.0 | 0.00 | 0.00 | 0.00 | 51 | 1007.3 |
| 20260509193025 | 89 | 112 | 1.0 | 4.0 | 0.00 | 0.00 | 0.00 | 58 | 1006.8 |
| 20260509191524 | 89 | 351 | 1.0 | 5.0 | 0.00 | 0.00 | 0.00 | 58 | 1006.7 |
| 20260509190035 | 89 | 360 | 1.0 | 7.0 | 0.00 | 0.00 | 0.00 | 59 | 1006.8 |
| 20260509184531 | 89 | 276 | 1.0 | 7.0 | 0.00 | 0.00 | 0.00 | 62 | 1007.2 |
| 20260509183027 | 89 | 24 | 0.0 | 2.0 | 0.00 | 0.00 | 0.00 | 59 | 1007.4 |
| 20260509181519 | 89 | 71 | 1.0 | 5.0 | 0.00 | 0.00 | 0.00 | 56 | 1007.6 |
| 20260509180014 | 88 | 225 | 0.0 | 4.0 | 0.00 | 0.00 | 0.00 | 64 | 1007.9 |
| 20260509174516 | 87 | 207 | 1.0 | 5.0 | 0.00 | 0.00 | 0.00 | 65 | 1007.9 |
| 20260509173014 | 87 | 252 | 0.0 | 3.0 | 0.00 | 0.00 | 0.00 | 64 | 1008.0 |
| 20260509171510 | 89 | 255 | 1.0 | 4.0 | 0.00 | 0.00 | 0.00 | 62 | 1008.5 |
| 20260509170013 | 88 | 245 | 2.0 | 5.0 | 0.00 | 0.00 | 0.00 | 65 | 1008.6 |
| 20260509164504 | 87 | 287 | 0.0 | 5.0 | 0.00 | 0.00 | 0.00 | 67 | 1008.4 |
| 20260509163105 | 85 | 342 | 0.0 | 8.0 | 0.00 | 0.00 | 0.00 | 70 | 1008.5 |
| 20260509161557 | 85 | 249 | 0.0 | 3.0 | 0.00 | 0.00 | 0.00 | 72 | 1008.7 |
| 20260509160054 | 83 | 213 | 0.0 | 5.0 | 0.00 | 0.00 | 0.00 | 73 | 1008.4 |
| 20260509154548 | 84 | 263 | 0.0 | 7.0 | 0.00 | 0.00 | 0.00 | 73 | 1008.4 |
| 20260509153046 | 84 | 192 | 1.0 | 4.0 | 0.00 | 0.00 | 0.00 | 72 | 1008.3 |
| 20260509151542 | 84 | 214 | 1.0 | 8.0 | 0.00 | 0.00 | 0.00 | 74 | 1007.8 |
| 20260509150039 | 83 | 296 | 0.0 | 4.0 | 0.00 | 0.00 | 0.00 | 77 | 1007.9 |
| 20260509144542 | 81 | 360 | 0.0 | 3.0 | 0.00 | 0.00 | 0.00 | 82 | 1007.8 |
| 20260509143030 | 79 | 61 | 0.0 | 2.0 | 0.00 | 0.00 | 0.00 | 88 | 1007.8 |
| 20260509141534 | 77 | 253 | 0.0 | 5.0 | 0.00 | 0.00 | 0.00 | 91 | 1007.6 |
| 20260509140031 | 76 | 272 | 0.0 | 0.0 | 0.00 | 0.00 | 0.00 | 92 | 1007.2 |
| 20260509134517 | 75 | 220 | 0.0 | 1.0 | 0.00 | 0.00 | 0.00 | 92 | 1007.1 |
| 20260509133012 | 73 | 145 | 0.0 | 3.0 | 0.00 | 0.00 | 0.00 | 92 | 1007.6 |
| 20260509131514 | 72 | 172 | 0.0 | 0.0 | 0.00 | 0.00 | 0.00 | 92 | 1007.4 |
| 20260509130005 | 72 | 101 | 0.0 | 0.0 | 0.00 | 0.00 | 0.00 | 92 | 1007.8 |
| 20260509124504 | 71 | 56 | 0.0 | 0.0 | 0.00 | 0.00 | 0.00 | 91 | 1008.0 |
| 20260509123002 | 71 | 56 | 0.0 | 0.0 | 0.00 | 0.00 | 0.00 | 91 | 1007.9 |
| 20260509121659 | 71 | 348 | 0.0 | 1.0 | 0.00 | 0.00 | 0.00 | 91 | 1007.8 |
| 20260509120106 | 71 | 67 | 0.0 | 0.0 | 0.00 | 0.00 | 0.00 | 91 | 1008.1 |
| 20260509114609 | 71 | 67 | 0.0 | 0.0 | 0.00 | 0.00 | 0.00 | 91 | 1007.9 |
| 20260509113058 | 72 | 67 | 0.0 | 0.0 | 0.00 | 0.00 | 0.00 | 91 | 1008.6 |
| 20260509111554 | 72 | 335 | 0.0 | 0.0 | 0.00 | 0.00 | 0.00 | 91 | 1008.9 |
| 20260509110104 | 72 | 242 | 0.0 | 0.0 | 0.00 | 0.00 | 0.00 | 91 | 1009.2 |
| 20260509104558 | 72 | 54 | 0.0 | 0.0 | 0.00 | 0.00 | 0.00 | 91 | 1009.2 |
| 20260509103051 | 72 | 54 | 0.0 | 0.0 | 0.00 | 0.00 | 0.00 | 90 | 1009.2 |
| 20260509101552 | 72 | 54 | 0.0 | 0.0 | 0.00 | 0.00 | 0.00 | 90 | 1009.2 |
| 20260509100047 | 72 | 68 | 0.0 | 0.0 | 0.00 | 0.00 | 0.00 | 90 | 1008.7 |
| 20260509094548 | 72 | 68 | 0.0 | 0.0 | 0.00 | 0.00 | 0.00 | 90 | 1008.0 |
| 20260509093048 | 72 | 68 | 0.0 | 0.0 | 0.00 | 0.00 | 0.00 | 90 | 1007.6 |
| 20260509091545 | 72 | 68 | 0.0 | 0.0 | 0.00 | 0.00 | 0.00 | 90 | 1007.5 |
| 20260509090051 | 72 | 68 | 0.0 | 0.0 | 0.00 | 0.00 | 0.00 | 90 | 1007.5 |
| 20260509084551 | 72 | 68 | 0.0 | 0.0 | 0.00 | 0.00 | 0.00 | 90 | 1007.7 |
| 20260509083046 | 72 | 68 | 0.0 | 0.0 | 0.00 | 0.00 | 0.00 | 90 | 1008.0 |
| 20260509081544 | 72 | 68 | 0.0 | 0.0 | 0.00 | 0.00 | 0.00 | 89 | 1008.0 |
| 20260509080040 | 73 | 68 | 0.0 | 0.0 | 0.00 | 0.00 | 0.00 | 89 | 1008.2 |
| 20260509074547 | 73 | 68 | 0.0 | 0.0 | 0.00 | 0.00 | 0.00 | 89 | 1008.3 |
| 20260509073038 | 73 | 68 | 0.0 | 2.0 | 0.00 | 0.00 | 0.00 | 88 | 1008.5 |
| 20260509071539 | 73 | 82 | 0.0 | 0.0 | 0.00 | 0.00 | 0.00 | 88 | 1008.6 |
| 20260509070036 | 73 | 96 | 0.0 | 0.0 | 0.00 | 0.00 | 0.00 | 88 | 1008.7 |
| 20260509064535 | 73 | 321 | 0.0 | 0.0 | 0.00 | 0.00 | 0.00 | 88 | 1008.2 |
| 20260509063035 | 73 | 96 | 0.0 | 2.0 | 0.00 | 0.00 | 0.00 | 88 | 1008.5 |
| 20260509061531 | 73 | 339 | 0.0 | 3.0 | 0.00 | 0.00 | 0.00 | 87 | 1008.0 |
| 20260509060030 | 73 | 127 | 0.0 | 1.0 | 0.00 | 0.00 | 0.00 | 87 | 1007.9 |
| 20260509054540 | 73 | 340 | 0.0 | 1.0 | 0.00 | 0.00 | 0.00 | 87 | 1008.0 |
| 20260509053100 | 73 | 61 | 0.0 | 3.0 | 0.00 | 0.00 | 0.00 | 86 | 1007.3 |
| 20260509051526 | 73 | 74 | 0.0 | 3.0 | 0.00 | 0.00 | 0.00 | 86 | 1007.0 |
| 20260509050036 | 73 | 76 | 0.0 | 1.0 | 0.00 | 0.00 | 0.00 | 86 | 1006.9 |
| 20260509044521 | 73 | 355 | 0.0 | 0.0 | 0.00 | 0.00 | 0.00 | 86 | 1007.2 |
| 20260509043020 | 73 | 76 | 0.0 | 0.0 | 0.00 | 0.00 | 0.00 | 85 | 1007.5 |
| 20260509041520 | 73 | 76 | 0.0 | 0.0 | 0.00 | 0.00 | 0.00 | 85 | 1007.6 |
| 20260509040020 | 74 | 76 | 0.0 | 0.0 | 0.00 | 0.00 | 0.00 | 84 | 1007.7 |
| 20260509034519 | 74 | 76 | 0.0 | 0.0 | 0.00 | 0.00 | 0.00 | 83 | 1007.7 |
| 20260509033018 | 74 | 76 | 0.0 | 0.0 | 0.00 | 0.00 | 0.00 | 83 | 1007.3 |
| 20260509031518 | 74 | 76 | 0.0 | 0.0 | 0.00 | 0.00 | 0.00 | 82 | 1007.3 |
| 20260509030027 | 74 | 76 | 0.0 | 1.0 | 0.00 | 0.00 | 0.00 | 82 | 1007.1 |
| 20260509024518 | 75 | 76 | 0.0 | 0.0 | 0.00 | 0.00 | 0.00 | 81 | 1007.1 |
| 20260509023025 | 75 | 76 | 0.0 | 0.0 | 0.00 | 0.00 | 0.00 | 81 | 1007.0 |
| 20260509021516 | 75 | 121 | 0.0 | 2.0 | 0.00 | 0.00 | 0.00 | 81 | 1006.8 |
| 20260509020016 | 76 | 89 | 0.0 | 4.0 | 0.00 | 0.00 | 0.00 | 80 | 1006.5 |
| 20260509014514 | 76 | 65 | 0.0 | 2.0 | 0.00 | 0.00 | 0.00 | 80 | 1006.6 |
| 20260509013014 | 77 | 67 | 0.0 | 3.0 | 0.00 | 0.00 | 0.00 | 79 | 1006.2 |
| 20260509011514 | 77 | 11 | 0.0 | 3.0 | 0.00 | 0.00 | 0.00 | 79 | 1006.3 |
| 20260509010015 | 77 | 91 | 0.0 | 0.0 | 0.00 | 0.00 | 0.00 | 78 | 1006.3 |
| 20260509004514 | 77 | 119 | 0.0 | 2.0 | 0.00 | 0.00 | 0.00 | 78 | 1006.2 |
| 20260509003011 | 77 | 49 | 0.0 | 3.0 | 0.00 | 0.00 | 0.00 | 77 | 1006.3 |
| 20260509001511 | 78 | 53 | 0.0 | 4.0 | 0.00 | 0.00 | 0.00 | 77 | 1006.3 |
| 20260509000012 | 78 | 109 | 0.0 | 2.0 | 0.00 | 0.00 | 0.00 | 76 | 1006.4 |
| 20260508234510 | 78 | 80 | 0.0 | 5.0 | 0.00 | 0.00 | 0.00 | 76 | 1006.5 |
| 20260508233009 | 78 | 102 | 0.0 | 5.0 | 0.00 | 0.00 | 0.00 | 76 | 1006.3 |
| 20260508231508 | 78 | 123 | 0.0 | 2.0 | 0.00 | 0.00 | 0.00 | 75 | 1006.4 |
| 20260508230010 | 78 | 90 | 0.0 | 3.0 | 0.00 | 0.00 | 0.00 | 75 | 1006.3 |
| 20260508224509 | 79 | 109 | 0.0 | 2.0 | 0.00 | 0.00 | 0.00 | 73 | 1006.5 |
| 20260508223010 | 79 | 66 | 2.0 | 8.0 | 0.00 | 0.00 | 0.00 | 72 | 1006.4 |